contact:dominique.lefevre@mio.osupytheas.fr, maurice.libes@osupytheas.fr, didier.mallarino@osupytheas.fr
Project:EMSO http://www.emso-fr.org/EMSO-France
Depth: 2436.0 m
Title:EMSO Ligure Ouest : Data MII capteur MICROCAT
DateTime_Computer,Latitude,Longitude,Temperature,Conductivity,Pressure,DateTime_Instrument
DateTime_Computer,Latitude,Longitude,degC,S m-1,dbar,DateTime_Instrument
2022-06-18T00:00:15Z,42.805,6.029,13.3011,4.60049,2470.646,2022-6-18T02:01:58Z
2022-06-18T00:03:18Z,42.805,6.029,13.3009,4.60057,2470.67,2022-6-18T02:05:01Z
2022-06-18T00:06:21Z,42.805,6.029,13.3009,4.60049,2470.707,2022-6-18T02:08:05Z
2022-06-18T00:09:24Z,42.805,6.029,13.3019,4.60064,2470.684,2022-6-18T02:11:08Z
2022-06-18T00:12:27Z,42.805,6.029,13.3009,4.60093,2470.693,2022-6-18T02:14:11Z
2022-06-18T00:15:30Z,42.805,6.029,13.3023,4.60084,2470.693,2022-6-18T02:17:14Z
2022-06-18T00:18:33Z,42.805,6.029,13.3013,4.60049,2470.67,2022-6-18T02:20:17Z
2022-06-18T00:21:36Z,42.805,6.029,13.3004,4.60047,2470.67,2022-6-18T02:23:20Z
2022-06-18T00:24:40Z,42.805,6.029,13.3009,4.60049,2470.684,2022-6-18T02:26:23Z
2022-06-18T00:27:43Z,42.805,6.029,13.3009,4.60053,2470.693,2022-6-18T02:29:26Z
2022-06-18T00:30:46Z,42.805,6.029,13.3009,4.60060,2470.67,2022-6-18T02:32:30Z
2022-06-18T00:33:49Z,42.805,6.029,13.3009,4.60058,2470.684,2022-6-18T02:35:33Z
2022-06-18T00:36:52Z,42.805,6.029,13.3006,4.60060,2470.624,2022-6-18T02:38:36Z
2022-06-18T00:39:55Z,42.805,6.029,13.3009,4.60053,2470.693,2022-6-18T02:41:39Z
2022-06-18T00:42:58Z,42.805,6.029,13.3009,4.60054,2470.67,2022-6-18T02:44:42Z
2022-06-18T00:46:01Z,42.805,6.029,13.3008,4.60053,2470.646,2022-6-18T02:47:45Z
2022-06-18T00:49:05Z,42.805,6.029,13.3009,4.60050,2470.633,2022-6-18T02:50:48Z
2022-06-18T00:52:08Z,42.805,6.029,13.3008,4.60054,2470.637,2022-6-18T02:53:51Z
2022-06-18T00:55:11Z,42.805,6.029,13.3007,4.60049,2470.684,2022-6-18T02:56:55Z
2022-06-18T00:58:14Z,42.805,6.029,13.3016,4.60062,2470.61,2022-6-18T02:59:58Z
2022-06-18T01:01:17Z,42.805,6.029,13.3017,4.60070,2470.624,2022-6-18T03:03:01Z
2022-06-18T01:04:20Z,42.805,6.029,13.3010,4.60067,2470.646,2022-6-18T03:06:04Z
2022-06-18T01:07:23Z,42.805,6.029,13.3014,4.60058,2470.67,2022-6-18T03:09:07Z
2022-06-18T01:10:26Z,42.805,6.029,13.3006,4.60050,2470.646,2022-6-18T03:12:10Z
2022-06-18T01:13:30Z,42.805,6.029,13.3012,4.60054,2470.637,2022-6-18T03:15:13Z
2022-06-18T01:16:33Z,42.805,6.029,13.3011,4.60054,2470.637,2022-6-18T03:18:16Z
2022-06-18T01:19:36Z,42.805,6.029,13.3012,4.60055,2470.624,2022-6-18T03:21:19Z
2022-06-18T01:22:39Z,42.805,6.029,13.3014,4.60050,2470.624,2022-6-18T03:24:23Z
2022-06-18T01:25:42Z,42.805,6.029,13.3009,4.60053,2470.637,2022-6-18T03:27:26Z
2022-06-18T01:28:45Z,42.805,6.029,13.3009,4.60063,2470.624,2022-6-18T03:30:29Z
2022-06-18T01:31:48Z,42.805,6.029,13.3011,4.60064,2470.624,2022-6-18T03:33:32Z
2022-06-18T01:34:51Z,42.805,6.029,13.3014,4.60074,2470.624,2022-6-18T03:36:35Z
2022-06-18T01:37:55Z,42.805,6.029,13.3007,4.60053,2470.624,2022-6-18T03:39:38Z
2022-06-18T01:40:58Z,42.805,6.029,13.3019,4.60069,2470.591,2022-6-18T03:42:41Z
2022-06-18T01:44:01Z,42.805,6.029,13.3011,4.60068,2470.614,2022-6-18T03:45:44Z
2022-06-18T01:47:04Z,42.805,6.029,13.3009,4.60055,2470.624,2022-6-18T03:48:48Z
2022-06-18T01:50:07Z,42.805,6.029,13.3009,4.60047,2470.614,2022-6-18T03:51:51Z
2022-06-18T01:53:10Z,42.805,6.029,13.3010,4.60057,2470.614,2022-6-18T03:54:54Z
2022-06-18T01:56:13Z,42.805,6.029,13.3006,4.60052,2470.577,2022-6-18T03:57:57Z
2022-06-18T01:59:16Z,42.805,6.029,13.3010,4.60050,2470.577,2022-6-18T04:01:00Z
2022-06-18T02:02:19Z,42.805,6.029,13.3009,4.60059,2470.591,2022-6-18T04:04:03Z
2022-06-18T02:05:23Z,42.805,6.029,13.3009,4.60055,2470.591,2022-6-18T04:07:06Z
2022-06-18T02:08:26Z,42.805,6.029,13.3007,4.60054,2470.6,2022-6-18T04:10:09Z
2022-06-18T02:11:29Z,42.805,6.029,13.3019,4.60074,2470.624,2022-6-18T04:13:13Z
2022-06-18T02:14:32Z,42.805,6.029,13.3011,4.60059,2470.6,2022-6-18T04:16:16Z
2022-06-18T02:17:35Z,42.805,6.029,13.3009,4.60062,2470.6,2022-6-18T04:19:19Z
2022-06-18T02:20:38Z,42.805,6.029,13.3014,4.60062,2470.577,2022-6-18T04:22:22Z
2022-06-18T02:23:41Z,42.805,6.029,13.3004,4.60052,2470.567,2022-6-18T04:25:25Z
2022-06-18T02:26:44Z,42.805,6.029,13.3011,4.60060,2470.567,2022-6-18T04:28:28Z
2022-06-18T02:29:48Z,42.805,6.029,13.3007,4.60062,2470.577,2022-6-18T04:31:31Z
2022-06-18T02:32:51Z,42.805,6.029,13.3011,4.60061,2470.577,2022-6-18T04:34:34Z
2022-06-18T02:35:54Z,42.805,6.029,13.3010,4.60050,2470.553,2022-6-18T04:37:38Z
2022-06-18T02:38:57Z,42.805,6.029,13.3015,4.60057,2470.553,2022-6-18T04:40:41Z
2022-06-18T02:42:00Z,42.805,6.029,13.3021,4.60063,2470.577,2022-6-18T04:43:44Z
2022-06-18T02:45:03Z,42.805,6.029,13.3007,4.60058,2470.591,2022-6-18T04:46:47Z
2022-06-18T02:48:06Z,42.805,6.029,13.3021,4.60071,2470.553,2022-6-18T04:49:50Z
2022-06-18T02:51:09Z,42.805,6.029,13.3009,4.60063,2470.553,2022-6-18T04:52:53Z
2022-06-18T02:54:13Z,42.805,6.029,13.3009,4.60052,2470.591,2022-6-18T04:55:56Z
2022-06-18T02:57:16Z,42.805,6.029,13.3010,4.60049,2470.567,2022-6-18T04:58:59Z
2022-06-18T03:00:19Z,42.805,6.029,13.3010,4.60057,2470.553,2022-6-18T05:02:02Z
2022-06-18T03:03:22Z,42.805,6.029,13.3013,4.60068,2470.53,2022-6-18T05:05:06Z
2022-06-18T03:06:25Z,42.805,6.029,13.3004,4.60057,2470.544,2022-6-18T05:08:09Z
2022-06-18T03:09:28Z,42.805,6.029,13.3006,4.60046,2470.553,2022-6-18T05:11:12Z
2022-06-18T03:12:31Z,42.805,6.029,13.3004,4.60052,2470.553,2022-6-18T05:14:15Z
2022-06-18T03:15:34Z,42.805,6.029,13.3009,4.60054,2470.53,2022-6-18T05:17:18Z
2022-06-18T03:18:37Z,42.805,6.029,13.3012,4.60063,2470.553,2022-6-18T05:20:21Z
2022-06-18T03:21:41Z,42.805,6.029,13.3009,4.60053,2470.53,2022-6-18T05:23:24Z
2022-06-18T03:24:44Z,42.805,6.029,13.3009,4.60053,2470.53,2022-6-18T05:26:27Z
2022-06-18T03:27:47Z,42.805,6.029,13.3012,4.60054,2470.591,2022-6-18T05:29:31Z
2022-06-18T03:30:50Z,42.805,6.029,13.3006,4.60053,2470.507,2022-6-18T05:32:34Z
2022-06-18T03:33:53Z,42.805,6.029,13.3011,4.60053,2470.516,2022-6-18T05:35:37Z
2022-06-18T03:36:56Z,42.805,6.029,13.3006,4.60045,2470.544,2022-6-18T05:38:40Z
2022-06-18T03:39:59Z,42.805,6.029,13.3009,4.60052,2470.544,2022-6-18T05:41:43Z
2022-06-18T03:43:02Z,42.805,6.029,13.3015,4.60050,2470.53,2022-6-18T05:44:46Z
2022-06-18T03:46:06Z,42.805,6.029,13.3014,4.60066,2470.53,2022-6-18T05:47:49Z
2022-06-18T03:49:09Z,42.805,6.029,13.3016,4.60058,2470.53,2022-6-18T05:50:52Z
2022-06-18T03:52:12Z,42.805,6.029,13.3011,4.60052,2470.52,2022-6-18T05:53:56Z
2022-06-18T03:55:15Z,42.805,6.029,13.3017,4.60050,2470.53,2022-6-18T05:56:59Z
2022-06-18T03:58:18Z,42.805,6.029,13.3011,4.60057,2470.507,2022-6-18T06:00:02Z
2022-06-18T04:01:21Z,42.805,6.029,13.3011,4.60059,2470.507,2022-6-18T06:03:05Z
2022-06-18T04:04:24Z,42.805,6.029,13.3011,4.60048,2470.544,2022-6-18T06:06:08Z
2022-06-18T04:07:27Z,42.805,6.029,13.3008,4.60044,2470.507,2022-6-18T06:09:11Z
2022-06-18T04:10:31Z,42.805,6.029,13.3014,4.60079,2470.483,2022-6-18T06:12:14Z
2022-06-18T04:13:34Z,42.805,6.029,13.3011,4.60059,2470.53,2022-6-18T06:15:17Z
2022-06-18T04:16:37Z,42.805,6.029,13.3010,4.60052,2470.507,2022-6-18T06:18:21Z
2022-06-18T04:19:40Z,42.805,6.029,13.3006,4.60049,2470.53,2022-6-18T06:21:24Z
2022-06-18T04:22:43Z,42.805,6.029,13.3006,4.60058,2470.52,2022-6-18T06:24:27Z
2022-06-18T04:25:46Z,42.805,6.029,13.3011,4.60047,2470.507,2022-6-18T06:27:30Z
2022-06-18T04:28:49Z,42.805,6.029,13.3015,4.60061,2470.483,2022-6-18T06:30:33Z
2022-06-18T04:31:52Z,42.805,6.029,13.3009,4.60064,2470.483,2022-6-18T06:33:36Z
2022-06-18T04:34:56Z,42.805,6.029,13.3019,4.60059,2470.483,2022-6-18T06:36:39Z
2022-06-18T04:37:59Z,42.805,6.029,13.3008,4.60075,2470.52,2022-6-18T06:39:42Z
2022-06-18T04:41:02Z,42.805,6.029,13.3009,4.60067,2470.483,2022-6-18T06:42:45Z
2022-06-18T04:44:05Z,42.805,6.029,13.3009,4.60049,2470.52,2022-6-18T06:45:49Z
2022-06-18T04:47:08Z,42.805,6.029,13.3009,4.60060,2470.507,2022-6-18T06:48:52Z
2022-06-18T04:50:11Z,42.805,6.029,13.3012,4.60054,2470.46,2022-6-18T06:51:55Z
2022-06-18T04:53:14Z,42.805,6.029,13.3009,4.60048,2470.483,2022-6-18T06:54:58Z
2022-06-18T04:56:17Z,42.805,6.029,13.3009,4.60057,2470.507,2022-6-18T06:58:01Z
2022-06-18T04:59:20Z,42.805,6.029,13.3012,4.60046,2470.483,2022-6-18T07:01:04Z
2022-06-18T05:02:24Z,42.805,6.029,13.3009,4.60056,2470.483,2022-6-18T07:04:07Z
2022-06-18T05:05:27Z,42.805,6.029,13.3015,4.60052,2470.507,2022-6-18T07:07:10Z
2022-06-18T05:08:30Z,42.805,6.029,13.3018,4.60064,2470.53,2022-6-18T07:10:14Z
2022-06-18T05:11:33Z,42.805,6.029,13.3006,4.60054,2470.483,2022-6-18T07:13:17Z
2022-06-18T05:14:36Z,42.805,6.029,13.3014,4.60069,2470.544,2022-6-18T07:16:20Z
2022-06-18T05:17:39Z,42.805,6.029,13.3011,4.60057,2470.52,2022-6-18T07:19:23Z
2022-06-18T05:20:42Z,42.805,6.029,13.3009,4.60046,2470.47,2022-6-18T07:22:26Z
2022-06-18T05:23:45Z,42.805,6.029,13.3015,4.60054,2470.497,2022-6-18T07:25:29Z
2022-06-18T05:26:49Z,42.805,6.029,13.3015,4.60050,2470.53,2022-6-18T07:28:32Z
2022-06-18T05:29:52Z,42.805,6.029,13.3009,4.60072,2470.497,2022-6-18T07:31:35Z
2022-06-18T05:32:55Z,42.805,6.029,13.3014,4.60054,2470.507,2022-6-18T07:34:39Z
2022-06-18T05:35:58Z,42.805,6.029,13.3013,4.60046,2470.483,2022-6-18T07:37:42Z
2022-06-18T05:39:01Z,42.805,6.029,13.3007,4.60049,2470.497,2022-6-18T07:40:45Z
2022-06-18T05:42:04Z,42.805,6.029,13.3007,4.60049,2470.483,2022-6-18T07:43:48Z
2022-06-18T05:45:07Z,42.805,6.029,13.3006,4.60045,2470.483,2022-6-18T07:46:51Z
2022-06-18T05:48:10Z,42.805,6.029,13.3006,4.60055,2470.52,2022-6-18T07:49:54Z
2022-06-18T05:51:14Z,42.805,6.029,13.3010,4.60061,2470.544,2022-6-18T07:52:57Z
2022-06-18T05:54:17Z,42.805,6.029,13.3006,4.60046,2470.52,2022-6-18T07:56:00Z
2022-06-18T05:57:20Z,42.805,6.029,13.3014,4.60053,2470.52,2022-6-18T07:59:04Z
2022-06-18T06:00:23Z,42.805,6.029,13.3016,4.60069,2470.544,2022-6-18T08:02:07Z
2022-06-18T06:03:26Z,42.805,6.029,13.3005,4.60051,2470.52,2022-6-18T08:05:10Z
2022-06-18T06:06:29Z,42.805,6.029,13.3024,4.60066,2470.507,2022-6-18T08:08:13Z
2022-06-18T06:09:32Z,42.805,6.029,13.3010,4.60048,2470.53,2022-6-18T08:11:16Z
2022-06-18T06:12:35Z,42.805,6.029,13.3006,4.60051,2470.483,2022-6-18T08:14:19Z
2022-06-18T06:15:39Z,42.805,6.029,13.3009,4.60049,2470.544,2022-6-18T08:17:22Z
2022-06-18T06:18:42Z,42.805,6.029,13.3010,4.60047,2470.507,2022-6-18T08:20:25Z
2022-06-18T06:21:45Z,42.805,6.029,13.3008,4.60058,2470.507,2022-6-18T08:23:28Z
2022-06-18T06:24:48Z,42.805,6.029,13.3005,4.60044,2470.507,2022-6-18T08:26:32Z
2022-06-18T06:27:51Z,42.805,6.029,13.3007,4.60046,2470.53,2022-6-18T08:29:35Z
2022-06-18T06:30:54Z,42.805,6.029,13.3009,4.60047,2470.53,2022-6-18T08:32:38Z
2022-06-18T06:33:57Z,42.805,6.029,13.3014,4.60057,2470.52,2022-6-18T08:35:41Z
2022-06-18T06:37:00Z,42.805,6.029,13.3015,4.60055,2470.507,2022-6-18T08:38:44Z
2022-06-18T06:40:03Z,42.805,6.029,13.3011,4.60048,2470.507,2022-6-18T08:41:47Z
2022-06-18T06:43:07Z,42.805,6.029,13.3009,4.60057,2470.544,2022-6-18T08:44:50Z
2022-06-18T06:46:10Z,42.805,6.029,13.3008,4.60047,2470.483,2022-6-18T08:47:53Z
2022-06-18T06:49:13Z,42.805,6.029,13.3014,4.60052,2470.483,2022-6-18T08:50:57Z
2022-06-18T06:52:16Z,42.805,6.029,13.3010,4.60050,2470.52,2022-6-18T08:54:00Z
2022-06-18T06:55:19Z,42.805,6.029,13.3009,4.60054,2470.567,2022-6-18T08:57:03Z
2022-06-18T06:58:22Z,42.805,6.029,13.3009,4.60087,2470.507,2022-6-18T09:00:06Z
2022-06-18T07:01:25Z,42.805,6.029,13.3008,4.60058,2470.53,2022-6-18T09:03:09Z
2022-06-18T07:04:28Z,42.805,6.029,13.3007,4.60052,2470.553,2022-6-18T09:06:12Z
2022-06-18T07:07:32Z,42.805,6.029,13.3010,4.60049,2470.553,2022-6-18T09:09:15Z
2022-06-18T07:10:35Z,42.805,6.029,13.3011,4.60052,2470.553,2022-6-18T09:12:18Z
2022-06-18T07:13:38Z,42.805,6.029,13.3013,4.60053,2470.53,2022-6-18T09:15:22Z
2022-06-18T07:16:41Z,42.805,6.029,13.3014,4.60055,2470.544,2022-6-18T09:18:25Z
2022-06-18T07:19:44Z,42.805,6.029,13.3004,4.60049,2470.544,2022-6-18T09:21:28Z
2022-06-18T07:22:47Z,42.805,6.029,13.3014,4.60057,2470.53,2022-6-18T09:24:31Z
2022-06-18T07:25:50Z,42.805,6.029,13.3009,4.60054,2470.544,2022-6-18T09:27:34Z
2022-06-18T07:28:53Z,42.805,6.029,13.3007,4.60055,2470.53,2022-6-18T09:30:37Z
2022-06-18T07:31:57Z,42.805,6.029,13.3009,4.60047,2470.567,2022-6-18T09:33:40Z
2022-06-18T07:35:00Z,42.805,6.029,13.3012,4.60064,2470.53,2022-6-18T09:36:43Z
2022-06-18T07:38:03Z,42.805,6.029,13.3009,4.60063,2470.53,2022-6-18T09:39:47Z
2022-06-18T07:41:06Z,42.805,6.029,13.3008,4.60049,2470.544,2022-6-18T09:42:50Z
2022-06-18T07:44:09Z,42.805,6.029,13.3013,4.60049,2470.544,2022-6-18T09:45:53Z
2022-06-18T07:47:12Z,42.805,6.029,13.3014,4.60055,2470.553,2022-6-18T09:48:56Z
2022-06-18T07:50:15Z,42.805,6.029,13.3015,4.60060,2470.591,2022-6-18T09:51:59Z
2022-06-18T07:53:18Z,42.805,6.029,13.3008,4.60053,2470.544,2022-6-18T09:55:02Z
2022-06-18T07:56:22Z,42.805,6.029,13.3016,4.60055,2470.567,2022-6-18T09:58:05Z
2022-06-18T07:59:25Z,42.805,6.029,13.3011,4.60060,2470.544,2022-6-18T10:01:08Z
2022-06-18T08:02:28Z,42.805,6.029,13.3006,4.60052,2470.567,2022-6-18T10:04:11Z
2022-06-18T08:05:31Z,42.805,6.029,13.3010,4.60057,2470.544,2022-6-18T10:07:15Z
2022-06-18T08:08:34Z,42.805,6.029,13.3030,4.60071,2470.539,2022-6-18T10:10:18Z
2022-06-18T08:11:37Z,42.805,6.029,13.3010,4.60069,2470.567,2022-6-18T10:13:21Z
2022-06-18T08:14:40Z,42.805,6.029,13.3017,4.60073,2470.544,2022-6-18T10:16:24Z
2022-06-18T08:17:43Z,42.805,6.029,13.3011,4.60076,2470.567,2022-6-18T10:19:27Z
2022-06-18T08:20:47Z,42.805,6.029,13.3014,4.60067,2470.553,2022-6-18T10:22:30Z
2022-06-18T08:23:50Z,42.805,6.029,13.3009,4.60069,2470.507,2022-6-18T10:25:33Z
2022-06-18T08:26:53Z,42.805,6.029,13.3008,4.60077,2470.553,2022-6-18T10:28:36Z
2022-06-18T08:29:56Z,42.805,6.029,13.3017,4.60062,2470.567,2022-6-18T10:31:40Z
2022-06-18T08:32:59Z,42.805,6.029,13.3013,4.60068,2470.567,2022-6-18T10:34:43Z
2022-06-18T08:36:02Z,42.805,6.029,13.3025,4.60069,2470.553,2022-6-18T10:37:46Z
2022-06-18T08:39:05Z,42.805,6.029,13.3024,4.60072,2470.591,2022-6-18T10:40:49Z
2022-06-18T08:42:08Z,42.805,6.029,13.3014,4.60054,2470.591,2022-6-18T10:43:52Z
2022-06-18T08:45:12Z,42.805,6.029,13.3013,4.60061,2470.553,2022-6-18T10:46:55Z
2022-06-18T08:48:15Z,42.805,6.029,13.3013,4.60079,2470.544,2022-6-18T10:49:58Z
2022-06-18T08:51:18Z,42.805,6.029,13.3015,4.60057,2470.577,2022-6-18T10:53:02Z
2022-06-18T08:54:21Z,42.805,6.029,13.3011,4.60066,2470.577,2022-6-18T10:56:05Z
2022-06-18T08:57:24Z,42.805,6.029,13.3016,4.60077,2470.577,2022-6-18T10:59:08Z
2022-06-18T09:00:27Z,42.805,6.029,13.3020,4.60084,2470.614,2022-6-18T11:02:11Z
2022-06-18T09:03:30Z,42.805,6.029,13.3015,4.60076,2470.577,2022-6-18T11:05:14Z
2022-06-18T09:06:33Z,42.805,6.029,13.3011,4.60060,2470.544,2022-6-18T11:08:17Z
2022-06-18T09:09:37Z,42.805,6.029,13.3015,4.60057,2470.567,2022-6-18T11:11:20Z
2022-06-18T09:12:40Z,42.805,6.029,13.3009,4.60052,2470.591,2022-6-18T11:14:23Z
2022-06-18T09:15:43Z,42.805,6.029,13.3012,4.60057,2470.553,2022-6-18T11:17:27Z
2022-06-18T09:18:46Z,42.805,6.029,13.3018,4.60062,2470.567,2022-6-18T11:20:30Z
2022-06-18T09:21:49Z,42.805,6.029,13.3009,4.60048,2470.577,2022-6-18T11:23:33Z
2022-06-18T09:24:52Z,42.805,6.029,13.3010,4.60051,2470.577,2022-6-18T11:26:36Z
2022-06-18T09:27:55Z,42.805,6.029,13.3007,4.60043,2470.577,2022-6-18T11:29:39Z
2022-06-18T09:30:58Z,42.805,6.029,13.3015,4.60059,2470.577,2022-6-18T11:32:42Z
2022-06-18T09:34:02Z,42.805,6.029,13.3012,4.60052,2470.591,2022-6-18T11:35:45Z
2022-06-18T09:37:05Z,42.805,6.029,13.3007,4.60049,2470.577,2022-6-18T11:38:48Z
2022-06-18T09:40:08Z,42.805,6.029,13.3017,4.60070,2470.567,2022-6-18T11:41:52Z
2022-06-18T09:43:11Z,42.805,6.029,13.3014,4.60062,2470.567,2022-6-18T11:44:55Z
2022-06-18T09:46:14Z,42.805,6.029,13.3009,4.60077,2470.553,2022-6-18T11:47:58Z
2022-06-18T09:49:17Z,42.805,6.029,13.3019,4.60070,2470.591,2022-6-18T11:51:01Z
2022-06-18T09:52:20Z,42.805,6.029,13.3023,4.60062,2470.553,2022-6-18T11:54:04Z
2022-06-18T09:55:23Z,42.805,6.029,13.3011,4.60056,2470.539,2022-6-18T11:57:07Z
2022-06-18T09:58:27Z,42.805,6.029,13.3008,4.60058,2470.577,2022-6-18T12:00:10Z
2022-06-18T10:01:30Z,42.805,6.029,13.3015,4.60084,2470.567,2022-6-18T12:03:13Z
2022-06-18T10:04:33Z,42.805,6.029,13.3026,4.60079,2470.553,2022-6-18T12:06:17Z
2022-06-18T10:07:36Z,42.805,6.029,13.3014,4.60064,2470.553,2022-6-18T12:09:20Z
2022-06-18T10:10:39Z,42.805,6.029,13.3009,4.60078,2470.567,2022-6-18T12:12:23Z
2022-06-18T10:13:42Z,42.805,6.029,13.3017,4.60074,2470.577,2022-6-18T12:15:26Z
2022-06-18T10:16:45Z,42.805,6.029,13.3013,4.60055,2470.577,2022-6-18T12:18:29Z
2022-06-18T10:19:48Z,42.805,6.029,13.3010,4.60058,2470.577,2022-6-18T12:21:32Z
2022-06-18T10:22:52Z,42.805,6.029,13.3006,4.60057,2470.563,2022-6-18T12:24:35Z
2022-06-18T10:25:55Z,42.805,6.029,13.3011,4.60055,2470.553,2022-6-18T12:27:38Z
2022-06-18T10:28:58Z,42.805,6.029,13.3008,4.60057,2470.53,2022-6-18T12:30:42Z
2022-06-18T10:32:01Z,42.805,6.029,13.3013,4.60062,2470.553,2022-6-18T12:33:45Z
2022-06-18T10:35:04Z,42.805,6.029,13.3011,4.60067,2470.553,2022-6-18T12:36:48Z
2022-06-18T10:38:07Z,42.805,6.029,13.3018,4.60062,2470.553,2022-6-18T12:39:51Z
2022-06-18T10:41:10Z,42.805,6.029,13.3011,4.60080,2470.577,2022-6-18T12:42:54Z
2022-06-18T10:44:14Z,42.805,6.029,13.3010,4.60066,2470.53,2022-6-18T12:45:57Z
2022-06-18T10:47:17Z,42.805,6.029,13.3009,4.60057,2470.53,2022-6-18T12:49:00Z
2022-06-18T10:50:20Z,42.805,6.029,13.3018,4.60062,2470.577,2022-6-18T12:52:04Z
2022-06-18T10:53:23Z,42.805,6.029,13.3014,4.60097,2470.591,2022-6-18T12:55:07Z
2022-06-18T10:56:26Z,42.805,6.029,13.3017,4.60074,2470.53,2022-6-18T12:58:10Z
2022-06-18T10:59:29Z,42.805,6.029,13.3015,4.60062,2470.53,2022-6-18T13:01:13Z
2022-06-18T11:02:32Z,42.805,6.029,13.3016,4.60092,2470.52,2022-6-18T13:04:16Z
2022-06-18T11:05:35Z,42.805,6.029,13.3026,4.60096,2470.553,2022-6-18T13:07:19Z
2022-06-18T11:08:39Z,42.805,6.029,13.3013,4.60065,2470.544,2022-6-18T13:10:22Z
2022-06-18T11:11:42Z,42.805,6.029,13.3007,4.60067,2470.544,2022-6-18T13:13:25Z
2022-06-18T11:14:45Z,42.805,6.029,13.3009,4.60056,2470.553,2022-6-18T13:16:29Z
2022-06-18T11:17:48Z,42.805,6.029,13.3009,4.60077,2470.507,2022-6-18T13:19:32Z
2022-06-18T11:20:51Z,42.805,6.029,13.3011,4.60065,2470.544,2022-6-18T13:22:35Z
2022-06-18T11:23:54Z,42.805,6.029,13.3010,4.60077,2470.52,2022-6-18T13:25:38Z
2022-06-18T11:26:57Z,42.805,6.029,13.3019,4.60077,2470.53,2022-6-18T13:28:41Z
2022-06-18T11:30:00Z,42.805,6.029,13.3024,4.60080,2470.493,2022-6-18T13:31:44Z
2022-06-18T11:33:04Z,42.805,6.029,13.3014,4.60079,2470.507,2022-6-18T13:34:47Z
2022-06-18T11:36:07Z,42.805,6.029,13.3015,4.60096,2470.53,2022-6-18T13:37:50Z
2022-06-18T11:39:10Z,42.805,6.029,13.3009,4.60062,2470.553,2022-6-18T13:40:54Z
2022-06-18T11:42:13Z,42.805,6.029,13.3006,4.60064,2470.52,2022-6-18T13:43:57Z
2022-06-18T11:45:16Z,42.805,6.029,13.3020,4.60079,2470.53,2022-6-18T13:47:00Z
2022-06-18T11:48:19Z,42.805,6.029,13.3011,4.60087,2470.53,2022-6-18T13:50:03Z
2022-06-18T11:51:22Z,42.805,6.029,13.3017,4.60086,2470.53,2022-6-18T13:53:06Z
2022-06-18T11:54:25Z,42.805,6.029,13.3012,4.60105,2470.567,2022-6-18T13:56:09Z
2022-06-18T11:57:29Z,42.805,6.029,13.3012,4.60076,2470.53,2022-6-18T13:59:12Z
2022-06-18T12:00:32Z,42.805,6.029,13.3010,4.60057,2470.507,2022-6-18T14:02:15Z
2022-06-18T12:03:35Z,42.805,6.029,13.3011,4.60088,2470.52,2022-6-18T14:05:19Z
2022-06-18T12:06:38Z,42.805,6.029,13.3014,4.60069,2470.474,2022-6-18T14:08:22Z
2022-06-18T12:09:41Z,42.805,6.029,13.3011,4.60062,2470.507,2022-6-18T14:11:25Z
2022-06-18T12:12:44Z,42.805,6.029,13.3012,4.60089,2470.52,2022-6-18T14:14:28Z
2022-06-18T12:15:47Z,42.805,6.029,13.3016,4.60066,2470.52,2022-6-18T14:17:31Z
2022-06-18T12:18:50Z,42.805,6.029,13.3013,4.60080,2470.497,2022-6-18T14:20:34Z
2022-06-18T12:21:54Z,42.805,6.029,13.3011,4.60089,2470.52,2022-6-18T14:23:37Z
2022-06-18T12:24:57Z,42.805,6.029,13.3015,4.60064,2470.507,2022-6-18T14:26:40Z
2022-06-18T12:28:00Z,42.805,6.029,13.3010,4.60067,2470.507,2022-6-18T14:29:44Z
2022-06-18T12:31:03Z,42.805,6.029,13.3028,4.60079,2470.507,2022-6-18T14:32:47Z
2022-06-18T12:34:06Z,42.805,6.029,13.3013,4.60092,2470.483,2022-6-18T14:35:50Z
2022-06-18T12:37:09Z,42.805,6.029,13.3011,4.60076,2470.46,2022-6-18T14:38:53Z
2022-06-18T12:40:12Z,42.805,6.029,13.3014,4.60062,2470.483,2022-6-18T14:41:56Z
2022-06-18T12:43:15Z,42.805,6.029,13.3011,4.60093,2470.497,2022-6-18T14:44:59Z
2022-06-18T12:46:19Z,42.805,6.029,13.3027,4.60075,2470.483,2022-6-18T14:48:02Z
2022-06-18T12:49:22Z,42.805,6.029,13.3013,4.60077,2470.446,2022-6-18T14:51:05Z
2022-06-18T12:52:25Z,42.805,6.029,13.3014,4.60077,2470.46,2022-6-18T14:54:09Z
2022-06-18T12:55:28Z,42.805,6.029,13.3011,4.60067,2470.483,2022-6-18T14:57:12Z
2022-06-18T12:58:31Z,42.805,6.029,13.3021,4.60077,2470.483,2022-6-18T15:00:15Z
2022-06-18T13:01:34Z,42.805,6.029,13.3023,4.60077,2470.507,2022-6-18T15:03:18Z
2022-06-18T13:04:37Z,42.805,6.029,13.3011,4.60082,2470.497,2022-6-18T15:06:21Z
2022-06-18T13:07:40Z,42.805,6.029,13.3015,4.60097,2470.437,2022-6-18T15:09:24Z
2022-06-18T13:10:44Z,42.805,6.029,13.3014,4.60113,2470.483,2022-6-18T15:12:27Z
2022-06-18T13:13:47Z,42.805,6.029,13.3015,4.60087,2470.483,2022-6-18T15:15:30Z
2022-06-18T13:16:50Z,42.805,6.029,13.3020,4.60065,2470.483,2022-6-18T15:18:34Z
2022-06-18T13:19:53Z,42.805,6.029,13.3011,4.60071,2470.46,2022-6-18T15:21:37Z
2022-06-18T13:22:56Z,42.805,6.029,13.3009,4.60078,2470.483,2022-6-18T15:24:40Z
2022-06-18T13:25:59Z,42.805,6.029,13.3024,4.60110,2470.483,2022-6-18T15:27:43Z
2022-06-18T13:29:02Z,42.805,6.029,13.3024,4.60093,2470.46,2022-6-18T15:30:46Z
2022-06-18T13:32:05Z,42.805,6.029,13.3037,4.60127,2470.437,2022-6-18T15:33:49Z
2022-06-18T13:35:09Z,42.805,6.029,13.3014,4.60094,2470.437,2022-6-18T15:36:52Z
2022-06-18T13:38:12Z,42.805,6.029,13.3036,4.60091,2470.46,2022-6-18T15:39:55Z
2022-06-18T13:41:15Z,42.805,6.029,13.3014,4.60110,2470.46,2022-6-18T15:42:59Z
2022-06-18T13:44:18Z,42.805,6.029,13.3030,4.60108,2470.46,2022-6-18T15:46:02Z
2022-06-18T13:47:21Z,42.805,6.029,13.3044,4.60102,2470.46,2022-6-18T15:49:05Z
2022-06-18T13:50:24Z,42.805,6.029,13.3013,4.60087,2470.483,2022-6-18T15:52:08Z
2022-06-18T13:53:27Z,42.805,6.029,13.3011,4.60085,2470.474,2022-6-18T15:55:11Z
2022-06-18T13:56:30Z,42.805,6.029,13.3024,4.60114,2470.46,2022-6-18T15:58:14Z
2022-06-18T13:59:34Z,42.805,6.029,13.3020,4.60100,2470.474,2022-6-18T16:01:17Z
2022-06-18T14:02:37Z,42.805,6.029,13.3012,4.60084,2470.46,2022-6-18T16:04:20Z
2022-06-18T14:05:40Z,42.805,6.029,13.3014,4.60099,2470.437,2022-6-18T16:07:24Z
2022-06-18T14:08:43Z,42.805,6.029,13.3015,4.60077,2470.427,2022-6-18T16:10:27Z
2022-06-18T14:11:46Z,42.805,6.029,13.3012,4.60101,2470.45,2022-6-18T16:13:30Z
2022-06-18T14:14:49Z,42.805,6.029,13.3015,4.60080,2470.45,2022-6-18T16:16:33Z
2022-06-18T14:17:52Z,42.805,6.029,13.3017,4.60086,2470.437,2022-6-18T16:19:36Z
2022-06-18T14:20:55Z,42.805,6.029,13.3024,4.60095,2470.437,2022-6-18T16:22:39Z
2022-06-18T14:23:59Z,42.805,6.029,13.3015,4.60110,2470.437,2022-6-18T16:25:42Z
2022-06-18T14:27:02Z,42.805,6.029,13.3019,4.60129,2470.437,2022-6-18T16:28:45Z
2022-06-18T14:30:05Z,42.805,6.029,13.3018,4.60086,2470.437,2022-6-18T16:31:49Z
2022-06-18T14:33:08Z,42.805,6.029,13.3017,4.60091,2470.437,2022-6-18T16:34:52Z
2022-06-18T14:36:11Z,42.805,6.029,13.3014,4.60111,2470.413,2022-6-18T16:37:55Z
2022-06-18T14:39:14Z,42.805,6.029,13.3026,4.60091,2470.413,2022-6-18T16:40:58Z
2022-06-18T14:42:17Z,42.805,6.029,13.3028,4.60134,2470.413,2022-6-18T16:44:01Z
2022-06-18T14:45:20Z,42.805,6.029,13.3039,4.60123,2470.45,2022-6-18T16:47:04Z
2022-06-18T14:48:24Z,42.805,6.029,13.3023,4.60093,2470.413,2022-6-18T16:50:07Z
2022-06-18T14:51:27Z,42.805,6.029,13.3021,4.60097,2470.366,2022-6-18T16:53:10Z
2022-06-18T14:54:30Z,42.805,6.029,13.3047,4.60135,2470.417,2022-6-18T16:56:14Z
2022-06-18T14:57:33Z,42.805,6.029,13.3044,4.60144,2470.404,2022-6-18T16:59:17Z
2022-06-18T15:00:36Z,42.805,6.029,13.3036,4.60119,2470.39,2022-6-18T17:02:20Z
2022-06-18T15:03:39Z,42.805,6.029,13.3036,4.60125,2470.437,2022-6-18T17:05:23Z
2022-06-18T15:06:42Z,42.805,6.029,13.3022,4.60095,2470.366,2022-6-18T17:08:26Z
2022-06-18T15:09:45Z,42.805,6.029,13.3021,4.60107,2470.404,2022-6-18T17:11:29Z